Simultaneous Nadir Overpasses (SNOs) Predictions

Prediction of SNOs between FY3D and AQUA Satellite Orbit:

Table of predicted SNOs for the next 14.0 days since TLE Epoch: 10/5/2024
Index Date (FY3D) Time (FY3D) Lat,Lon (FY3D) SZA (FY3D ) Date (AQUA) Time (AQUA) Lat,Lon (AQUA) SZA (AQUA ) Distance(km) Time Diff (sec)
1 10/06/2024 19:20:24 -79.41, 53.46 94.83 10/06/2024 19:20:19 -79.42, 53.34 94.82 2.55 5
2 10/09/2024 06:33:04 -79.44,-114.85 93.87 10/09/2024 06:32:58 -79.44,-114.93 93.86 1.62 6
3 10/11/2024 16:55:04 79.65, -92.21 87.34 10/11/2024 16:56:17 79.65, -92.22 87.33 0.32 73
4 10/11/2024 17:45:42 -79.42, 77.19 92.97 10/11/2024 17:45:31 -79.43, 77.09 92.96 2.12 11
5 10/14/2024 04:07:40 79.60, 100.19 88.17 10/14/2024 04:08:44 79.60, 100.08 88.17 2.23 64
6 10/14/2024 04:58:21 -79.46, -91.24 92.01 10/14/2024 04:58:00 -79.45, -91.13 92.02 2.36 21
7 10/16/2024 15:20:17 79.63, -68.18 89.11 10/16/2024 15:21:07 79.63, -68.14 89.10 0.82 50
8 10/16/2024 16:10:54 -79.36, 101.50 91.24 10/16/2024 16:10:20 -79.36, 101.45 91.23 1.08 34
9 10/19/2024 02:32:52 79.58, 124.10 89.94 10/19/2024 02:33:24 79.58, 124.20 89.93 2.18 32



Historial Predications of SNOs between FY3D and AQUA
